Memphis, TN (38109)

6:15 AM CST on February 09, 2016 (GMT -0600)
Allen Combined Cycle Plant | | Change Station
CLOSE
Current Station
Personal Weather Station
Location: Memphis, TN
Elevation: 197 ft
Nearby Weather Stations

Elev 197 ft 35.07 °N, 90.14 °W | Updated 11 seconds ago

Overcast
Overcast
33.3 °F
Feels Like 25 °F
N
10.5
Wind Variable Wind from WNW
Gusts 12.3 mph

Today
High -- | Low -- °F
--% Chance of Precip.
Yesterday
High -- | Low -- °F
Precip. -- in
Pressure 29.96 in
Visibility 10.0 miles
Clouds Mostly Cloudy 4800 ft
Windchill 25 °F
Dew Point 17 °F
Humidity 51%
Rainfall 0.00 in
Snow Depth Not available.
6:52 AM 5:36 PM
New Moon, 1% visible
METAR KMEM 091154Z 29017G25KT 10SM BKN048 01/M09 A2995 RMK AO2 PK WND 30028/1141 SLP145 T00061094 10022 20006 55001
Pressure 29.96 in
Visibility 10.0 miles
Clouds Mostly Cloudy 4800 ft
Windchill 25 °F
Dew Point 17 °F
Humidity 51%
Rainfall 0.00 in
Snow Depth Not available.
6:52 AM 5:36 PM
New Moon, 1% visible
METAR KMEM 091154Z 29017G25KT 10SM BKN048 01/M09 A2995 RMK AO2 PK WND 30028/1141 SLP145 T00061094 10022 20006 55001

10-Day Weather Forecast

Almanac

Astronomy

Feb. 09, 2016 Rise Set
Actual Time
Civil Twilight
Nautical Twilight
Astronomical Twilight
Moon
Length of Visible Light
Length of Day
Tomorrow will be .
, % of the Moon is Illuminated

Today's Extremes

State Highs State Lows

Community

WunderPhotos

Upload Photos

1,891,588 photos uploaded!

WunderBlog® & News

Nearby

Air Quality

  Air Quality AQ Index Pollutant
Not available.

Snow Depth

Station Depth Elevation

Earthquake Activity

City Distance Mag. Time & Date
Minimum magnitude displayed is 2.5.

Coastal Water Temperatures

Place Temperature

Stations

Nearby Weather Stations

Station Location Temp. Windchill Dew Point Humidity Wind Precip. Elev Updated Type
                   

Watches & Warnings

There are currently no watches in effect.